Location: Unspecified
(49.2170°N, 0.0000°E)
Time: 01:12:24
(UTC+00:00)

SR - Pass Details

Date: 23 January 2021
Orbit: 573 x 882 km, 66.7° (Epoch: 03 March)

Event Time Altitude Azimuth Distance (km) Brightness Sun altitude
Exits shadow 04:38:31 44° 133° (SE) 977 ? -29.7°
Maximum altitude 04:38:58 45° 116° (ESE) 965 ? -29.6°
Drops below altitude 10° 04:43:56 10° 45° (NE) 2,301 ? -28.8°
Sets 04:46:32 0° 40° (NE) 3,284 ? -28.4°
